| time (UTC) | temp C | wind direction | speed KPH | gust KPH | rain 1hr cm | rain 24hr cm | rain mn cm | humidity % | barometer mb |
| 20260507043035 | 15 | 347 | 6.4 | 17.7 | 0.00 | 0.15 | 0.15 | 92 | 1015.5 |
| 20260507041534 | 15 | 42 | 6.4 | 12.9 | 0.00 | 0.15 | 0.15 | 92 | 1015.3 |
| 20260507040035 | 15 | 27 | 4.8 | 12.9 | 0.00 | 0.15 | 0.15 | 92 | 1015.3 |
| 20260507034536 | 15 | 46 | 3.2 | 8.0 | 0.00 | 0.15 | 0.15 | 92 | 1015.2 |
| 20260507033033 | 15 | 333 | 3.2 | 8.0 | 0.00 | 0.15 | 0.15 | 91 | 1015.4 |
| 20260507031536 | 15 | 16 | 3.2 | 9.7 | 0.00 | 0.15 | 0.15 | 91 | 1014.7 |
| 20260507030035 | 15 | 19 | 1.6 | 9.7 | 0.00 | 0.15 | 0.15 | 91 | 1014.8 |
| 20260507024535 | 15 | 19 | 4.8 | 6.4 | 0.00 | 0.15 | 0.15 | 91 | 1014.6 |
| 20260507023032 | 15 | 13 | 4.8 | 12.9 | 0.00 | 0.15 | 0.15 | 91 | 1014.5 |
| 20260507021534 | 15 | 13 | 3.2 | 8.0 | 0.00 | 0.15 | 0.15 | 91 | 1014.6 |
| 20260507020045 | 15 | 19 | 3.2 | 8.0 | 0.00 | 0.15 | 0.15 | 91 | 1014.1 |
| 20260507014536 | 15 | 26 | 1.6 | 6.4 | 0.00 | 0.15 | 0.15 | 91 | 1014.2 |
| 20260507013054 | 15 | 5 | 4.8 | 11.3 | 0.00 | 0.15 | 0.15 | 90 | 1013.7 |
| 20260507011541 | 16 | 21 | 4.8 | 11.3 | 0.00 | 0.15 | 0.15 | 90 | 1013.6 |
| 20260507010044 | 16 | 17 | 4.8 | 12.9 | 0.00 | 0.15 | 0.15 | 90 | 1013.2 |
| 20260507004536 | 16 | 36 | 4.8 | 9.7 | 0.00 | 0.15 | 0.15 | 90 | 1013.1 |
| 20260507003034 | 16 | 346 | 6.4 | 14.5 | 0.00 | 0.15 | 0.15 | 89 | 1013.0 |
| 20260507001539 | 16 | 360 | 3.2 | 14.5 | 0.00 | 0.15 | 0.15 | 89 | 1012.9 |
| 20260507000045 | 16 | 351 | 9.7 | 16.1 | 0.00 | 0.15 | 0.15 | 89 | 1012.8 |
| 20260506234540 | 16 | 5 | 3.2 | 19.3 | 0.00 | 0.15 | 0.15 | 88 | 1012.5 |
| 20260506233037 | 16 | 340 | 6.4 | 17.7 | 0.00 | 0.15 | 0.15 | 87 | 1012.5 |
| 20260506231543 | 17 | 9 | 8.0 | 17.7 | 0.00 | 0.15 | 0.15 | 87 | 1012.5 |
| 20260506230035 | 17 | 5 | 12.9 | 22.5 | 0.00 | 0.15 | 0.15 | 87 | 1012.3 |
| 20260506224554 | 17 | 15 | 9.7 | 19.3 | 0.00 | 0.15 | 0.15 | 87 | 1012.1 |
| 20260506223041 | 18 | 5 | 8.0 | 20.9 | 0.00 | 0.15 | 0.15 | 86 | 1011.9 |
| 20260506221537 | 18 | 15 | 9.7 | 19.3 | 0.00 | 0.15 | 0.15 | 85 | 1011.9 |
| 20260506220041 | 18 | 323 | 12.9 | 25.7 | 0.00 | 0.15 | 0.15 | 84 | 1012.0 |
| 20260506214553 | 20 | 21 | 11.3 | 27.4 | 0.00 | 0.15 | 0.15 | 83 | 1011.8 |
| 20260506213044 | 20 | 346 | 12.9 | 20.9 | 0.00 | 0.15 | 0.15 | 82 | 1011.6 |
| 20260506211536 | 20 | 352 | 11.3 | 19.3 | 0.00 | 0.15 | 0.15 | 84 | 1011.6 |
| 20260506210041 | 20 | 352 | 12.9 | 25.7 | 0.00 | 0.15 | 0.15 | 83 | 1011.9 |
| 20260506204541 | 22 | 340 | 11.3 | 22.5 | 0.00 | 0.15 | 0.15 | 81 | 1011.8 |
| 20260506203037 | 23 | 342 | 11.3 | 20.9 | 0.00 | 0.15 | 0.15 | 81 | 1011.7 |
| 20260506201537 | 23 | 346 | 9.7 | 20.9 | 0.00 | 0.15 | 0.15 | 82 | 1011.7 |
| 20260506200041 | 23 | 351 | 8.0 | 19.3 | 0.00 | 0.15 | 0.15 | 85 | 1011.9 |
| 20260506194536 | 22 | 11 | 8.0 | 16.1 | 0.00 | 0.15 | 0.15 | 88 | 1012.0 |
| 20260506193040 | 22 | 352 | 9.7 | 19.3 | 0.00 | 0.15 | 0.15 | 89 | 1012.0 |
| 20260506191537 | 22 | 5 | 3.2 | 4.8 | 0.00 | 0.15 | 0.15 | 92 | 1012.2 |
| 20260506190043 | 21 | 330 | 3.2 | 9.7 | 0.00 | 0.15 | 0.15 | 94 | 1012.4 |
| 20260506184537 | 21 | 317 | 3.2 | 12.9 | 0.00 | 0.15 | 0.15 | 94 | 1012.4 |
| 20260506183034 | 22 | 352 | 4.8 | 14.5 | 0.05 | 0.15 | 0.15 | 94 | 1012.4 |
| 20260506181536 | 21 | 340 | 0.0 | 4.8 | 0.10 | 0.15 | 0.15 | 95 | 1012.3 |
| 20260506180036 | 21 | 313 | 0.0 | 3.2 | 0.10 | 0.15 | 0.15 | 96 | 1012.4 |
| 20260506174537 | 20 | 272 | 1.6 | 6.4 | 0.10 | 0.15 | 0.15 | 95 | 1012.8 |
| 20260506173037 | 20 | 352 | 3.2 | 6.4 | 0.05 | 0.10 | 0.10 | 95 | 1012.8 |
| 20260506171550 | 20 | 352 | 1.6 | 4.8 | 0.00 | 0.05 | 0.05 | 94 | 1012.9 |
| 20260506170039 | 20 | 352 | 1.6 | 6.4 | 0.00 | 0.05 | 0.05 | 94 | 1012.5 |
| 20260506164540 | 20 | 51 | 1.6 | 9.7 | 0.00 | 0.05 | 0.05 | 94 | 1012.5 |
| 20260506163041 | 19 | 33 | 1.6 | 8.0 | 0.05 | 0.05 | 0.05 | 94 | 1012.4 |
| 20260506161540 | 20 | 341 | 8.0 | 17.7 | 0.05 | 0.05 | 0.05 | 95 | 1012.2 |
| 20260506160037 | 19 | 333 | 8.0 | 22.5 | 0.05 | 0.05 | 0.05 | 95 | 1012.2 |
| 20260506154542 | 20 | 333 | 9.7 | 27.4 | 0.05 | 0.05 | 0.05 | 94 | 1012.1 |
| 20260506153033 | 22 | 333 | 3.2 | 6.4 | 0.00 | 0.00 | 0.00 | 96 | 1011.8 |
| 20260506151537 | 22 | 153 | 0.0 | 4.8 | 0.00 | 0.00 | 0.00 | 96 | 1011.6 |
| 20260506150045 | 22 | 0 | 0.0 | 8.0 | 0.00 | 0.00 | 0.00 | 96 | 1011.5 |
| 20260506144548 | 22 | 153 | 0.0 | 4.8 | 0.00 | 0.00 | 0.00 | 97 | 1011.5 |
| 20260506143036 | 22 | 0 | 0.0 | 8.0 | 0.00 | 0.00 | 0.00 | 97 | 1011.5 |
| 20260506141535 | 22 | 25 | 0.0 | 6.4 | 0.00 | 0.00 | 0.00 | 97 | 1011.3 |
| 20260506140043 | 22 | 0 | 0.0 | 3.2 | 0.00 | 0.00 | 0.00 | 97 | 1011.2 |
| 20260506134537 | 21 | 161 | 0.0 | 6.4 | 0.00 | 0.00 | 0.00 | 97 | 1010.6 |
| 20260506133044 | 21 | 155 | 3.2 | 14.5 | 0.00 | 0.00 | 0.00 | 97 | 1009.8 |
| 20260506131542 | 21 | 165 | 1.6 | 8.0 | 0.00 | 0.00 | 0.00 | 97 | 1009.6 |
| 20260506130037 | 21 | 175 | 3.2 | 9.7 | 0.00 | 0.00 | 0.00 | 97 | 1009.7 |
| 20260506124537 | 21 | 129 | 4.8 | 11.3 | 0.00 | 0.00 | 0.00 | 97 | 1009.5 |
| 20260506123034 | 21 | 136 | 4.8 | 8.0 | 0.00 | 0.00 | 0.00 | 97 | 1009.3 |
| 20260506121536 | 21 | 157 | 3.2 | 11.3 | 0.00 | 0.00 | 0.00 | 97 | 1009.1 |
| 20260506120042 | 21 | 157 | 3.2 | 8.0 | 0.00 | 0.00 | 0.00 | 96 | 1009.2 |
| 20260506114534 | 21 | 182 | 4.8 | 11.3 | 0.00 | 0.00 | 0.00 | 97 | 1009.0 |
| 20260506113046 | 21 | 148 | 3.2 | 9.7 | 0.00 | 0.00 | 0.00 | 97 | 1009.3 |
| 20260506111535 | 21 | 151 | 3.2 | 11.3 | 0.00 | 0.00 | 0.00 | 96 | 1009.4 |
| 20260506110036 | 22 | 145 | 1.6 | 14.5 | 0.00 | 0.00 | 0.00 | 96 | 1009.4 |
| 20260506104537 | 22 | 161 | 6.4 | 16.1 | 0.00 | 0.00 | 0.00 | 96 | 1009.2 |
| 20260506103036 | 22 | 142 | 4.8 | 12.9 | 0.00 | 0.00 | 0.00 | 96 | 1009.4 |
| 20260506101544 | 22 | 148 | 6.4 | 17.7 | 0.00 | 0.00 | 0.00 | 96 | 1009.3 |
| 20260506100037 | 22 | 155 | 8.0 | 25.7 | 0.00 | 0.00 | 0.00 | 96 | 1009.2 |
| 20260506094537 | 22 | 161 | 8.0 | 19.3 | 0.00 | 0.00 | 0.00 | 96 | 1009.2 |
| 20260506093034 | 22 | 150 | 6.4 | 16.1 | 0.00 | 0.00 | 0.00 | 96 | 1009.1 |
| 20260506091534 | 22 | 136 | 6.4 | 20.9 | 0.00 | 0.00 | 0.00 | 96 | 1009.0 |
| 20260506090035 | 22 | 161 | 8.0 | 19.3 | 0.00 | 0.00 | 0.00 | 96 | 1008.9 |
| 20260506084540 | 22 | 158 | 8.0 | 14.5 | 0.00 | 0.00 | 0.00 | 95 | 1008.6 |
| 20260506083039 | 22 | 148 | 8.0 | 19.3 | 0.00 | 0.00 | 0.00 | 95 | 1008.7 |
| 20260506081537 | 22 | 148 | 6.4 | 17.7 | 0.00 | 0.00 | 0.00 | 95 | 1008.5 |
| 20260506073035 | 22 | 169 | 11.3 | 27.4 | 0.00 | 0.00 | 0.00 | 93 | 1008.8 |
| 20260506071541 | 22 | 146 | 8.0 | 16.1 | 0.00 | 0.00 | 0.00 | 93 | 1009.1 |
| 20260506061534 | 23 | 134 | 6.4 | 17.7 | 0.00 | 0.00 | 0.00 | 92 | 1009.5 |
| 20260506044536 | 21 | 0 | 0.0 | 0.0 | 0.00 | 0.00 | 0.00 | 95 | 1009.3 |